Location: Unspecified
(0.0000°N, 0.0000°E)
Time: 16:19:18
(UTC+00:00)

Vanguard 2 Rocket - Pass Details

Date: 26 November 2019
Orbit: 554 x 3326 km, 32.9° (Epoch: 13 December)

Event Time Altitude Azimuth Distance (km) Brightness Sun altitude
Rises 11:23:20 0° 245° (WSW) 6,424 11.3 68.3°
Reaches altitude 10° 11:29:30 10° 229° (SW) 5,812 11.3 68.6°
Maximum altitude 11:41:43 20° 188° (S) 5,423 11.5 69.0°
Drops below altitude 10° 11:54:45 10° 148° (SSE) 6,174 11.5 69.0°
Sets 12:01:45 0° 132° (SE) 6,925 11.5 68.8°
